Погода в Крынках

Польша     53°15′52″N   23°46′22″E
темп.,
°C
ветер,
м/с
пор.,
м/с
влажн.,
%
обл.,
%
осадки,
мм/ч
давл.,
гПа
погр.,
м
26 февраля, пт
пт2601:00+4зюз489228 0.0 1023161
04:00+4зюз47960 0.0 1022132
07:00+4з4109638 0.0 1021265
10:00+7з51079100 0.0 1021540
13:00+7з6116999 0.0 1021720
16:00+6з4107591 0.0 1020527
19:00+4з5138395 0.0 1020533
22:00+3зсз51186100 0.0 1019844
27 февраля, сб
сб2701:00+3зсз5118897 0.0 1020609
04:00+3зсз61191100 0.0 1019614
07:00+3сз61292100 0.1 1021817
10:00+5сз7117235 0.0 1022849
13:00+6сз7116318 0.0 10231195
16:00+6сз611652 0.0 10241143
19:00+3сз613809 0.0 1026614
22:00+1сз512840 0.0 1028491
28 февраля, вс
вс2801:000сз49890 0.0 1029343
04:00−1сз389053 0.0 1029318
07:000сз498976 0.0 1030385
10:00+4сз487334 0.0 1029570
13:00+7зсз6106550 0.0 1028795
16:00+6зсз6126775 0.0 1026818
19:00+4сз6148982 0.0 1027597
22:00+3сз6138974 0.0 1028525
1 марта, пн
пн101:00+3ссз5108783 0.0 1030505
04:000сз369562 0.0 1031165
07:000сз269636 0.0 1032172
10:00+5сз35778 0.0 1032369
13:00+8зсз46665 0.0 1032561
16:00+7з386924 0.0 1031443
19:00+5з4107963 0.0 1031238
22:00+4з4108593 0.0 1031256
2 марта, вт
вт201:00+3з5128696 0.0 1030299
04:00+2з5138818 0.0 1029400
07:00+2зсз512909 0.0 1029406
10:00+6зсз510710 0.0 1030525
13:00+8зсз59580 0.0 1029696
16:00+8зсз49642 0.0 1028609
19:00+4зсз310821 0.0 1029256
22:00+2зсз35920 0.0 1030121